sat.trackr.live / text

‹ back to catalog

AEROCUBE 4.5A

NORAD 38767 · 2012-048K

PAYLOAD ACTIVE UNKNOWN

§ Identity

Operator
Country
US
Launch date
2012-09-13
Launch site
AFWTR
Launch vehicle
Mass (kg)
RCS (m²)

Purposes: tech_demo

External: N2YO · Heavens-Above · Gunter

§ Orbital elements

Epoch: 2026-05-24T23:41:39.906816Z

Period
91.06 min
Inclination
64.6276°
Eccentricity
0.0018284
Mean motion
15.81298189 rev/d
Perigee alt
314.5 km
Apogee alt
339.0 km
Semi-major
6,704.9 km
B*
9.6479e-4
RAAN
110.8538°
Arg perigee
214.6384°
Mean anomaly
145.3582°
Rev number
36,897

§ Raw data

AEROCUBE 4.5A1 38767U 12048K   26144.98726744  .00197703  00000+0  96479-3 0  99942 38767  64.6276 110.8538 0018284 214.6384 145.3582 15.81298189368974

JSON: /api/v1/satellites/38767 · /tle

For live sub-satellite position, see the globe view (requires WebGL).

§ Visibility from observer

Set your observer location to see the next 7 days of passes ≥ 10°. The values pass through the URL so the page stays shareable.

No JS? Fill the form by hand. The geolocation button needs JavaScript.